EW3861 Weather Reports


Display with metric or nautical units.
time (UTC)temp
F
wind
direction
speed
MPH
gust
MPH
rain 1hr
in
rain 24hr
in
rain mn
in
humidity
%
barometer
mb
20260831050021 69 190 0.0 0.0 0.00 0.00 0.00 93 1015.7
20260831044521 69 236 0.0 0.0 0.00 0.00 0.00 93 1015.7
20260831043019 69 236 0.0 0.0 0.00 0.00 0.00 92 1015.8
20260831041524 69 236 0.0 0.0 0.00 0.00 0.00 92 1015.8
20260831040014 70 236 0.0 0.0 0.00 0.00 0.00 92 1015.9
20260831034513 70 236 0.0 0.0 0.00 0.00 0.00 92 1015.8
20260831033016 71 239 0.0 0.0 0.00 0.00 0.00 90 1015.7
20260831031512 71 239 0.0 0.0 0.00 0.00 0.00 89 1016.0
20260831030016 71 239 0.0 0.0 0.00 0.00 0.00 88 1015.8
20260831024512 72 239 0.0 0.0 0.00 0.00 0.00 86 1015.8
20260831023011 72 239 0.0 0.0 0.00 0.00 0.00 84 1016.0
20260831021511 72 236 0.0 0.0 0.00 0.00 0.00 82 1015.8
20260831020010 72 220 0.0 0.0 0.00 0.00 0.00 81 1015.8
20260831014509 73 217 0.0 0.0 0.00 0.00 0.00 81 1015.6
20260831013009 73 227 0.0 0.0 0.00 0.00 0.00 79 1015.6
20260831011513 73 234 0.0 0.0 0.00 0.00 0.00 77 1015.5
20260831010007 73 223 0.0 0.0 0.00 0.00 0.00 76 1015.5
20260831004506 73 227 0.0 0.0 0.00 0.00 0.00 75 1015.4
20260831003005 74 229 0.0 0.0 0.00 0.00 0.00 73 1015.3
20260831001505 74 302 0.0 0.0 0.00 0.00 0.00 72 1015.3
20260831000004 74 203 0.0 0.0 0.00 0.00 0.00 70 1015.1
20260830234504 74 252 0.0 0.0 0.00 0.00 0.00 68 1014.9
20260830233003 74 225 0.0 0.0 0.00 0.00 0.00 66 1015.0
20260830231502 75 214 0.0 0.0 0.00 0.00 0.00 65 1015.2
20260830224559 76 250 0.0 0.0 0.00 0.00 0.00 63 1015.3
20260830223102 76 223 0.0 0.0 0.00 0.00 0.00 62 1015.3
20260830221558 76 197 0.0 0.0 0.00 0.00 0.00 60 1015.4
20260830220057 77 217 0.0 0.0 0.00 0.00 0.00 59 1015.4
20260830214557 77 198 0.0 0.0 0.00 0.00 0.00 57 1015.4
20260830213056 78 229 0.0 0.0 0.00 0.00 0.00 56 1015.5
20260830211557 78 219 0.0 0.0 0.00 0.00 0.00 55 1015.4
20260830210054 78 234 0.0 0.0 0.00 0.00 0.00 53 1015.5
20260830204553 78 223 0.0 0.0 0.00 0.00 0.00 53 1015.6
20260830203114 78 255 0.0 0.0 0.00 0.00 0.00 53 1015.7
20260830201558 79 259 0.0 0.0 0.00 0.00 0.00 52 1015.7
20260830200050 79 236 0.0 0.0 0.00 0.00 0.00 51 1015.8
20260830194549 80 232 0.0 0.0 0.00 0.00 0.00 50 1016.2
20260830193048 80 252 0.0 0.0 0.00 0.00 0.00 50 1016.2
20260830191554 81 282 0.0 0.0 0.00 0.00 0.00 49 1016.4
20260830190044 81 273 0.0 0.0 0.00 0.00 0.00 50 1016.5
20260830184544 82 234 0.0 0.0 0.00 0.00 0.00 48 1016.8
20260830183043 83 226 0.0 0.0 0.00 0.00 0.00 45 1016.7
20260830181551 83 257 0.0 0.0 0.00 0.00 0.00 44 1016.8
20260830180041 83 232 0.0 0.0 0.00 0.00 0.00 43 1017.0
20260830174539 83 290 0.0 0.0 0.00 0.00 0.00 45 1017.1
20260830173050 83 231 0.0 0.0 0.00 0.00 0.00 48 1017.0
20260830171542 83 227 0.0 0.0 0.00 0.00 0.00 46 1017.3
20260830170033 82 229 0.0 0.0 0.00 0.00 0.00 46 1017.3
20260830164539 82 259 0.0 0.0 0.00 0.00 0.00 47 1017.4
20260830163027 81 301 0.0 0.0 0.00 0.00 0.00 49 1017.5
20260830161525 80 213 0.0 0.0 0.00 0.00 0.00 52 1017.6
20260830160020 79 227 0.0 0.0 0.00 0.00 0.00 52 1017.9
20260830154517 78 232 0.0 0.0 0.00 0.00 0.00 54 1017.8
20260830153013 78 194 0.0 0.0 0.00 0.00 0.00 55 1018.2
20260830151521 77 259 0.0 0.0 0.00 0.00 0.00 58 1018.4
20260830150006 76 280 0.0 0.0 0.00 0.00 0.00 60 1018.5
20260830144503 76 215 0.0 0.0 0.00 0.00 0.00 60 1018.8
20260830143115 74 230 0.0 0.0 0.00 0.00 0.00 62 1018.8
20260830141600 73 274 0.0 0.0 0.00 0.00 0.00 66 1018.9
20260830140052 71 224 0.0 0.0 0.00 0.00 0.00 71 1019.0
20260830134548 68 230 0.0 0.0 0.00 0.00 0.00 76 1019.2
20260830133102 66 274 0.0 0.0 0.00 0.00 0.00 83 1019.4
20260830131541 63 221 0.0 0.0 0.00 0.00 0.00 94 1019.4
20260830130034 61 269 0.0 0.0 0.00 0.00 0.00 96 1019.4
20260830124530 60 269 0.0 0.0 0.00 0.00 0.00 97 1019.7
20260830123028 58 272 0.0 0.0 0.00 0.00 0.00 96 1019.8
20260830121524 57 272 0.0 0.0 0.00 0.00 0.00 96 1020.0
20260830120023 56 272 0.0 0.0 0.00 0.00 0.00 96 1019.9
20260830114521 55 272 0.0 0.0 0.00 0.00 0.00 95 1019.9
20260830113020 55 272 0.0 0.0 0.00 0.00 0.00 95 1019.9
20260830111523 54 272 0.0 0.0 0.00 0.00 0.00 95 1019.9
20260830110019 54 272 0.0 0.0 0.00 0.00 0.00 95 1019.8
20260830104517 54 272 0.0 0.0 0.00 0.00 0.00 94 1019.8
20260830103016 54 272 0.0 0.0 0.00 0.00 0.00 94 1020.0
20260830101520 54 272 0.0 0.0 0.00 0.00 0.00 94 1020.2
20260830100019 54 272 0.0 0.0 0.00 0.00 0.00 94 1020.0
20260830094514 54 272 0.0 0.0 0.00 0.00 0.00 94 1019.9
20260830093015 54 272 0.0 0.0 0.00 0.00 0.00 94 1019.9
20260830091514 54 272 0.0 0.0 0.00 0.00 0.00 94 1019.9
20260830090033 54 272 0.0 0.0 0.00 0.00 0.00 94 1020.0
20260830084510 54 272 0.0 0.0 0.00 0.00 0.00 94 1020.2
20260830083026 54 272 0.0 0.0 0.00 0.00 0.00 93 1020.6
20260830081508 54 272 0.0 0.0 0.00 0.00 0.00 93 1020.7
20260830080008 54 272 0.0 0.0 0.00 0.00 0.00 93 1020.6
20260830074505 54 272 0.0 0.0 0.00 0.00 0.00 93 1020.6
20260830073004 54 272 0.0 0.0 0.00 0.00 0.00 93 1020.4
20260830071503 54 272 0.0 0.0 0.00 0.00 0.00 93 1020.3
20260830070002 54 272 0.0 0.0 0.00 0.00 0.00 93 1020.2
20260830064503 54 272 0.0 0.0 0.00 0.00 0.00 93 1020.3
20260830063101 55 272 0.0 0.0 0.00 0.00 0.00 93 1020.2
20260830061607 55 272 0.0 0.0 0.00 0.00 0.00 92 1020.3
20260830060058 55 272 0.0 0.0 0.00 0.00 0.00 92 1020.3
20260830054557 55 272 0.0 0.0 0.00 0.00 0.00 92 1020.3
20260830053056 55 272 0.0 0.0 0.00 0.00 0.00 92 1020.4
20260830051557 56 272 0.0 0.0 0.00 0.00 0.00 91 1020.3